SCP
0 0 0 0 0 0 0 0 0 0 0 0 0 0 0 0 0 0 0 0 0 0 0 0 0 0 0 0 0 0 0 0 0 0 0 0 0 0 0 0 0 0 0 0
0 0 0 0 0 0 0 0 0 0 0 0 0 0 0 0 0 0 0 0 0 0 0 0 0 0 0 0 0 0 0 0 0 0 0 0 0 0 0 0 0 0 0 0
0 0 0 0 0 0 0 0 0 0 0 0 0 0 0 0 0 0 0 0 0 0 0 0 0 0 0 0 0 0 0 0 0 0 0 0 0 0 0 0 0 0 0 0
0 0 0 0 0 0 0 0 0 0 0 0 -0 -0 0 0 0 0 0 0 0 0 0 0 0 0 0 0 0 0 0 0 0 0 0 0 0 0 0 0 0 0 0 0
0 0 0 0 0 0 0 0 0 0 0 0 0 0 -0 0 0 0 0 0 0 0 0 0 0 0 0 0 0 0 0 0 0 0 0 0 0 0 0 0 0 0 0 0
0 0 0 0 0 0 0 0 0 0 0 0 0 0 -0 -0 0 0 0 0 0 0 0 0 0 0 0 0 0 0 0 0 0 0 0 0 0 0 0 0 0 0 0 0
0 0 0 0 0 0 0 0 0 0 0 0 0 0 0 0 0 0 0 0 0 0 0 0 0 0 0 0 0 0 0 0 0 0 0 0 0 0 0 0 0 0 0 0
0 0 0 0 0 0 0 0 0 0 0 0 0 0 0 0 0 0 0 0 0 0 0 0 0 0 0 0 0 0 0 0 0 0 0 0 0 0 0 0 0 0 0 0
0 0 0 0 0 0 0 0 0 0 0 0 0 0 0 0 0 0 0 0 0 0 0 0 0 0 0 0 0 0 0 0 0 0 0 0 0 0 0 0 0 0 0 0
0 0 0 0 0 0 0 0 0 0 0 0 0 0 0 0 0 0 0 0 0 0 0 0 0 0 0 0 0 0 0 0 0 0 0 0 0 0 0 0 0 0 0 0
0 0 0 0 0 0 0 0 0 0 0 0 0 0 0 0 0 0 0 0 0 0 0 0 0 0 0 0 0 0 0 0 0 0 0 0 0 0 0 0 0 0 0 0
0 0 0 0 0 0 0 0 0 0 0 0 0 0 0 0 0 0 0 0 0 0 0 0 0 0 0 0 0 0 0 0 0 0 0 0 0 0 0 0 0 0 0 0
0 0 0 0 0 0 0 0 0 0 0 0 0 0 -0 0 0 0 0 0 0 0 0 0 0 0 0 0 0 0 0 0 0 0 0 0 0 0 0 0 0 0 0 0
0 0 0 0 0 0 0 0 0 0 0 0 0 0 0 0 0 0 0 0 0 0 0 0 0 0 0 0 0 0 0 0 0 0 0 0 0 0 0 0 0 0 0 0
0 0 0 0 0 0 0 0 0 0 0 0 0 0 0 0 0 0 0 0 0 0 0 0 0 0 0 0 0 0 0 0 0 0 0 0 0 0 0 0 0 0 0 0
0 0 0 0 0 0 0 0 0 0 0 0 0 0 0 0 0 0 0 0 0 0 0 0 0 0 0 0 0 0 0 0 0 0 0 0 0 0 0 0 0 0 0 0
0 0 0 0 0 0 0 0 0 0 0 0 0 0 0 0 0 0 0 0 0 0 0 0 0 0 0 0 0 0 0 0 0 0 0 0 0 0 0 0 0 0 0 0
0 0 0 0 0 0 0 0 0 0 0 0 0 0 0 0 0 0 0 0 0 0 0 0 0 0 0 0 0 0 0 0 0 0 0 0 0 0 0 0 0 0 0 0
0 0 0 0 0 0 0 0 0 0 0 0 0 0 0 0 0 0 0 0 0 0 0 0 0 0 0 0 0 0 0 0 0 0 0 0 0 0 0 0 0 0 0 0
0 0 0 0 0 0 0 0 0 0 0 0 0 0 0 0 0 0 0 0 0 0 0 0 0 0 0 0 0 0 0 0 0 0 0 0 0 0 0 0 0 0 0 0
0 0 0 0 0 0 0 0 0 0 0 0 0 0 0 0 0 0 0 0 0 0 0 0 0 0 0 0 0 0 0 0 0 0 0 0 0 0 0 0 0 0 0 0
0 0 0 0 0 0 0 0 0 0 0 0 0 0 0 0 0 0 0 0 0 0 0 0 0 0 0 0 0 0 0 0 0 0 0 0 0 0 0 0 0 0 0 0
0 0 0 0 0 0 0 0 0 0 0 0 0 0 0 0 0 0 0 0 0 0 0 0 0 0 0 0 0 0 0 0 0 0 0 0 0 0 0 0 0 0 0 0
0 0 0 0 0 0 0 0 0 0 0 0 0 0 0 0 0 0 0 0 0 0 0 0 0 0 0 0 0 0 0 0 0 0 0 0 0 0 0 0 0 0 0 0
0 0 0 0 0 0 0 0 0 0 0 0 0 0 0 0 0 0 0 0 0 0 0 0 0 0 0 0 0 0 0 0 0 0 0 0 0 0 0 0 0 0 0 0
0 0 0 0 0 0 0 0 0 0 0 0 0 0 0 0 0 0 0 0 0 0 0 0 0 0 0 0 0 0 0 0 0 0 0 0 0 0 0 0 0 0 0 0
Wind_Speed_500mb
28 9 22 28 21 19 3 8 20 16 10 9 18 23 20 37 35 32 36 36 42 43 36 44 41 34 34 32 26 25 24 24 27 31 33 30 30 29 31 32 40 46 41 38
11 26 24 20 21 19 17 12 16 5 9 2 15 25 22 28 35 41 47 52 49 43 41 39 27 23 25 21 17 16 16 16 18 21 23 29 28 24 18 20 24 31 37 36
17 6 38 27 19 23 19 16 13 13 5 8 16 23 31 27 56 52 58 60 55 48 38 24 19 17 20 16 12 11 11 13 15 17 18 14 19 17 16 17 19 15 24 28
22 20 32 22 26 19 23 16 15 14 8 6 18 11 17 12 28 33 53 60 58 50 32 22 18 19 19 15 9 6 6 8 10 10 10 9 14 17 13 16 17 17 22 26
8 16 18 22 20 17 11 10 18 17 9 12 20 16 9 15 11 17 36 40 38 40 42 31 29 25 19 15 11 7 3 1 3 4 4 4 9 16 22 26 23 22 22 25
18 5 5 13 11 15 10 8 6 5 5 16 19 17 11 17 17 11 13 42 37 50 42 36 31 27 23 20 16 12 9 6 6 7 8 7 7 4 3 2 5 9 17 24
19 13 7 4 15 9 20 18 6 6 8 12 9 21 26 27 10 7 18 26 48 49 46 37 33 30 26 23 20 17 12 8 6 4 4 3 1 3 5 5 7 6 7 12
18 13 23 14 15 10 26 21 9 13 8 5 16 15 11 3 18 17 8 38 43 44 36 34 35 33 28 25 20 15 11 9 7 6 6 6 8 11 14 15 16 18 19 20
20 15 22 32 14 20 12 22 13 8 6 3 10 10 17 9 12 9 15 37 44 42 43 42 38 34 31 27 22 18 17 14 12 11 13 14 16 17 17 19 19 21 23 25
3 7 7 12 21 21 13 10 12 11 7 9 12 13 16 7 17 17 20 29 44 43 42 40 37 37 31 27 25 23 21 17 17 19 21 23 23 23 24 26 27 28 31 33
5 5 2 11 18 28 21 10 11 9 11 8 5 11 14 5 5 26 30 49 44 43 43 42 40 39 35 32 31 27 23 22 22 22 23 24 23 25 29 31 34 36 36 38
31 9 8 16 1 19 33 27 22 9 11 8 15 27 9 1 6 8 32 48 52 52 51 47 46 44 40 40 36 34 32 29 27 24 25 26 27 29 33 35 36 37 37 36
30 10 9 6 7 8 14 26 33 30 11 19 16 29 12 26 30 19 18 8 47 51 52 47 48 50 47 45 43 41 36 33 28 26 26 28 29 31 32 33 32 31 28 26
49 10 26 31 19 17 15 26 37 33 17 28 29 53 31 17 18 10 16 27 29 41 54 56 57 56 53 54 50 49 44 35 30 27 27 28 29 29 30 29 27 23 18 13
20 18 27 34 22 10 14 23 32 36 47 27 45 42 49 33 20 35 37 45 39 45 59 61 60 61 63 65 60 55 49 39 34 32 31 29 28 26 24 21 19 15 11 9
21 13 15 25 30 30 28 23 22 45 45 34 48 44 44 52 53 47 51 42 45 60 71 70 68 71 74 73 67 60 53 45 39 37 33 30 27 25 22 18 15 11 8 7
25 16 11 24 27 16 21 45 37 30 33 38 35 49 43 48 42 55 54 56 70 64 67 73 79 81 79 80 74 64 57 49 44 41 35 31 27 25 21 18 14 11 11 13
26 27 14 13 6 28 22 22 34 43 37 33 36 43 52 53 77 77 53 55 61 60 66 78 82 83 84 82 74 67 57 49 44 39 33 28 24 22 19 17 14 14 15 17
23 17 14 16 21 22 16 17 21 19 36 36 43 47 64 71 72 68 80 67 73 77 72 74 84 89 87 82 73 62 55 47 42 37 31 27 23 20 18 15 14 14 14 16
5 8 16 9 16 30 23 29 43 9 8 30 45 31 35 57 23 30 79 51 45 55 60 67 75 82 77 71 62 56 50 45 41 36 30 26 22 19 16 14 13 15 18 21
13 12 26 21 15 10 12 15 27 16 24 52 46 56 50 19 33 45 51 40 37 41 49 64 72 70 65 57 53 53 49 47 39 33 28 24 21 17 15 13 15 17 20 24
22 13 9 12 19 31 21 14 24 26 11 25 26 34 44 52 46 45 42 42 37 41 49 59 64 64 58 49 49 49 47 41 36 31 26 24 20 16 13 13 15 19 23 26
8 18 10 13 11 14 38 46 64 61 45 41 41 43 40 41 50 48 42 41 39 41 46 45 54 57 52 54 54 51 45 40 34 29 27 22 18 15 14 15 18 22 25 28
14 18 9 2 21 19 28 27 29 31 32 41 45 48 45 38 43 41 44 45 46 44 45 49 50 51 49 52 56 46 39 35 30 25 22 19 17 13 13 15 19 23 27 30
12 13 15 10 22 8 27 38 41 45 49 49 52 52 51 44 50 50 50 51 52 50 49 49 48 47 49 51 46 44 39 34 29 25 21 18 16 13 15 18 21 24 28 30
17 15 11 17 20 21 40 56 56 55 56 53 49 49 48 46 45 45 47 50 54 53 51 50 49 49 49 47 44 38 33 28 24 20 18 17 17 16 18 21 22 24 26 26
Wind_Direction_500mb
187 184 195 189 216 245 329 296 218 264 151 188 237 255 257 248 205 224 246 249 256 262 263 258 242 253 271 269 275 281 284 283 279 271 269 273 284 287 283 281 279 289 294 274
164 218 204 217 199 229 261 255 282 262 86 124 289 279 269 249 254 234 231 241 249 253 258 228 227 251 257 254 259 273 290 296 297 290 271 256 245 246 249 263 275 294 298 303
194 185 213 207 213 206 220 224 255 261 163 265 292 280 253 248 247 237 240 246 247 250 254 197 201 236 241 238 239 257 277 293 296 298 293 270 256 277 294 292 307 313 301 295
227 207 183 217 212 204 225 213 235 284 305 259 161 286 301 284 230 228 236 242 242 230 229 199 210 218 208 207 216 243 277 299 308 310 291 275 210 209 220 235 243 261 284 288
186 198 194 200 207 202 226 235 221 227 256 285 264 279 255 239 199 205 226 230 227 213 195 184 195 206 196 195 192 204 204 335 348 348 341 276 224 235 236 249 252 262 267 278
227 68 299 187 215 193 131 111 153 229 214 245 217 225 228 215 214 218 241 206 186 175 171 185 200 198 196 193 193 192 178 149 113 92 86 80 86 67 51 349 276 255 249 261
226 179 155 155 182 153 154 148 159 209 212 233 214 208 245 296 317 204 188 184 167 164 175 192 195 199 199 196 198 189 181 172 165 154 129 115 24 335 338 333 310 294 274 271
189 196 184 172 196 169 190 189 167 184 199 263 174 233 244 32 231 212 214 175 167 171 186 191 196 209 206 205 207 209 223 242 246 252 274 302 311 310 308 307 307 310 313 313
193 228 165 173 176 168 175 219 235 334 135 89 228 258 306 188 269 275 157 157 170 178 184 197 209 213 213 213 215 225 240 247 258 275 290 299 304 303 300 298 299 302 303 302
140 156 340 151 187 236 164 150 192 215 209 222 244 241 230 127 204 224 178 189 182 186 199 209 210 215 220 220 227 231 238 250 265 277 284 288 292 292 292 293 292 294 295 294
181 158 204 115 210 186 195 203 224 173 217 192 256 239 194 150 356 202 203 197 186 194 204 213 217 224 226 227 230 234 240 247 255 262 269 275 281 284 287 291 294 295 295 294
198 121 179 212 180 227 210 208 202 187 211 248 268 263 306 146 68 15 223 202 198 204 214 220 228 232 234 230 228 232 237 242 246 253 263 271 276 282 287 291 293 296 297 296
180 186 146 173 269 303 225 214 221 221 251 226 233 257 205 252 243 204 221 238 198 202 210 220 232 241 239 232 231 237 241 244 248 255 263 270 277 284 290 294 296 297 296 296
174 160 217 223 223 139 199 209 213 219 221 231 224 256 257 271 290 238 192 223 216 206 207 225 235 239 238 236 236 240 242 244 250 258 266 272 278 283 287 290 294 297 299 301
162 218 212 240 260 225 191 206 216 219 231 221 245 240 257 255 248 265 254 233 233 214 221 229 237 242 238 238 236 238 243 245 251 257 265 272 278 282 285 286 288 292 302 315
177 229 191 238 236 235 244 198 210 223 235 247 252 261 268 275 276 279 279 278 242 227 227 234 241 242 240 238 238 239 241 241 245 251 255 261 267 272 273 273 272 276 289 314
180 207 159 236 235 237 252 235 220 223 227 228 240 249 259 267 268 265 264 265 263 257 242 238 245 242 240 239 237 237 238 238 239 243 248 253 258 262 262 262 265 277 298 317
192 202 208 249 78 236 235 231 219 229 234 232 243 250 253 257 267 271 272 270 266 261 254 247 241 240 240 240 236 234 235 235 237 239 243 246 249 250 251 255 269 291 309 319
203 186 212 234 237 260 305 231 207 206 239 233 238 247 257 266 272 281 274 269 264 264 267 264 242 236 235 236 234 230 228 228 231 233 234 236 237 241 246 255 274 293 308 319
212 177 201 191 230 237 242 237 236 183 238 241 236 242 244 254 262 268 280 276 262 259 257 245 229 227 228 230 227 225 222 220 222 224 224 226 227 234 250 267 289 307 317 322
202 203 219 228 242 251 229 139 118 167 235 248 239 234 247 239 244 267 280 275 253 243 235 223 219 218 221 223 220 219 216 218 218 217 216 218 222 231 242 267 294 305 315 320
186 187 199 219 231 247 212 122 187 219 187 230 248 235 243 254 258 269 272 263 250 230 211 210 211 213 220 217 213 212 212 212 210 208 208 215 222 234 253 277 294 305 312 314
199 201 192 173 215 218 198 207 226 235 243 250 267 268 257 251 260 267 260 254 244 230 218 219 216 213 209 204 205 207 208 202 201 201 208 215 226 241 262 286 301 307 310 313
225 219 211 208 250 238 244 259 245 241 253 261 265 269 273 262 257 258 255 248 240 228 223 221 216 208 200 199 198 203 201 197 199 206 214 223 235 250 276 294 302 306 307 309
205 153 206 259 260 298 280 264 266 266 267 265 264 265 265 259 258 262 253 244 235 226 220 217 217 209 201 196 198 187 190 192 198 207 217 230 247 265 283 291 300 306 306 310
205 213 197 236 240 216 246 260 260 262 265 264 264 265 267 266 263 254 242 237 232 221 214 208 208 207 198 190 188 185 186 195 204 214 224 238 254 272 287 295 301 303 303 306
Wind_Speed_850mb
28 9 22 28 21 19 3 8 20 16 10 9 18 23 20 37 35 32 36 36 42 43 36 44 41 34 34 32 26 25 24 24 27 31 33 30 30 29 31 32 40 46 41 38
11 26 24 20 21 19 17 12 16 5 9 2 15 25 22 28 35 41 47 52 49 43 41 39 27 23 25 21 17 16 16 16 18 21 23 29 28 24 18 20 24 31 37 36
17 6 38 27 19 23 19 16 13 13 5 8 16 23 31 27 56 52 58 60 55 48 38 24 19 17 20 16 12 11 11 13 15 17 18 14 19 17 16 17 19 15 24 28
22 20 32 22 26 19 23 16 15 14 8 6 18 11 17 12 28 33 53 60 58 50 32 22 18 19 19 15 9 6 6 8 10 10 10 9 14 17 13 16 17 17 22 26
8 16 18 22 20 17 11 10 18 17 9 12 20 16 9 15 11 17 36 40 38 40 42 31 29 25 19 15 11 7 3 1 3 4 4 4 9 16 22 26 23 22 22 25
18 5 5 13 11 15 10 8 6 5 5 16 19 17 11 17 17 11 13 42 37 50 42 36 31 27 23 20 16 12 9 6 6 7 8 7 7 4 3 2 5 9 17 24
19 13 7 4 15 9 20 18 6 6 8 12 9 21 26 27 10 7 18 26 48 49 46 37 33 30 26 23 20 17 12 8 6 4 4 3 1 3 5 5 7 6 7 12
18 13 23 14 15 10 26 21 9 13 8 5 16 15 11 3 18 17 8 38 43 44 36 34 35 33 28 25 20 15 11 9 7 6 6 6 8 11 14 15 16 18 19 20
20 15 22 32 14 20 12 22 13 8 6 3 10 10 17 9 12 9 15 37 44 42 43 42 38 34 31 27 22 18 17 14 12 11 13 14 16 17 17 19 19 21 23 25
3 7 7 12 21 21 13 10 12 11 7 9 12 13 16 7 17 17 20 29 44 43 42 40 37 37 31 27 25 23 21 17 17 19 21 23 23 23 24 26 27 28 31 33
5 5 2 11 18 28 21 10 11 9 11 8 5 11 14 5 5 26 30 49 44 43 43 42 40 39 35 32 31 27 23 22 22 22 23 24 23 25 29 31 34 36 36 38
31 9 8 16 1 19 33 27 22 9 11 8 15 27 9 1 6 8 32 48 52 52 51 47 46 44 40 40 36 34 32 29 27 24 25 26 27 29 33 35 36 37 37 36
30 10 9 6 7 8 14 26 33 30 11 19 16 29 12 26 30 19 18 8 47 51 52 47 48 50 47 45 43 41 36 33 28 26 26 28 29 31 32 33 32 31 28 26
49 10 26 31 19 17 15 26 37 33 17 28 29 53 31 17 18 10 16 27 29 41 54 56 57 56 53 54 50 49 44 35 30 27 27 28 29 29 30 29 27 23 18 13
20 18 27 34 22 10 14 23 32 36 47 27 45 42 49 33 20 35 37 45 39 45 59 61 60 61 63 65 60 55 49 39 34 32 31 29 28 26 24 21 19 15 11 9
21 13 15 25 30 30 28 23 22 45 45 34 48 44 44 52 53 47 51 42 45 60 71 70 68 71 74 73 67 60 53 45 39 37 33 30 27 25 22 18 15 11 8 7
25 16 11 24 27 16 21 45 37 30 33 38 35 49 43 48 42 55 54 56 70 64 67 73 79 81 79 80 74 64 57 49 44 41 35 31 27 25 21 18 14 11 11 13
26 27 14 13 6 28 22 22 34 43 37 33 36 43 52 53 77 77 53 55 61 60 66 78 82 83 84 82 74 67 57 49 44 39 33 28 24 22 19 17 14 14 15 17
23 17 14 16 21 22 16 17 21 19 36 36 43 47 64 71 72 68 80 67 73 77 72 74 84 89 87 82 73 62 55 47 42 37 31 27 23 20 18 15 14 14 14 16
5 8 16 9 16 30 23 29 43 9 8 30 45 31 35 57 23 30 79 51 45 55 60 67 75 82 77 71 62 56 50 45 41 36 30 26 22 19 16 14 13 15 18 21
13 12 26 21 15 10 12 15 27 16 24 52 46 56 50 19 33 45 51 40 37 41 49 64 72 70 65 57 53 53 49 47 39 33 28 24 21 17 15 13 15 17 20 24
22 13 9 12 19 31 21 14 24 26 11 25 26 34 44 52 46 45 42 42 37 41 49 59 64 64 58 49 49 49 47 41 36 31 26 24 20 16 13 13 15 19 23 26
8 18 10 13 11 14 38 46 64 61 45 41 41 43 40 41 50 48 42 41 39 41 46 45 54 57 52 54 54 51 45 40 34 29 27 22 18 15 14 15 18 22 25 28
14 18 9 2 21 19 28 27 29 31 32 41 45 48 45 38 43 41 44 45 46 44 45 49 50 51 49 52 56 46 39 35 30 25 22 19 17 13 13 15 19 23 27 30
12 13 15 10 22 8 27 38 41 45 49 49 52 52 51 44 50 50 50 51 52 50 49 49 48 47 49 51 46 44 39 34 29 25 21 18 16 13 15 18 21 24 28 30
17 15 11 17 20 21 40 56 56 55 56 53 49 49 48 46 45 45 47 50 54 53 51 50 49 49 49 47 44 38 33 28 24 20 18 17 17 16 18 21 22 24 26 26
Wind_Direction_850mb
187 184 195 189 216 245 329 296 218 264 151 188 237 255 257 248 205 224 246 249 256 262 263 258 242 253 271 269 275 281 284 283 279 271 269 273 284 287 283 281 279 289 294 274
164 218 204 217 199 229 261 255 282 262 86 124 289 279 269 249 254 234 231 241 249 253 258 228 227 251 257 254 259 273 290 296 297 290 271 256 245 246 249 263 275 294 298 303
194 185 213 207 213 206 220 224 255 261 163 265 292 280 253 248 247 237 240 246 247 250 254 197 201 236 241 238 239 257 277 293 296 298 293 270 256 277 294 292 307 313 301 295
227 207 183 217 212 204 225 213 235 284 305 259 161 286 301 284 230 228 236 242 242 230 229 199 210 218 208 207 216 243 277 299 308 310 291 275 210 209 220 235 243 261 284 288
186 198 194 200 207 202 226 235 221 227 256 285 264 279 255 239 199 205 226 230 227 213 195 184 195 206 196 195 192 204 204 335 348 348 341 276 224 235 236 249 252 262 267 278
227 68 299 187 215 193 131 111 153 229 214 245 217 225 228 215 214 218 241 206 186 175 171 185 200 198 196 193 193 192 178 149 113 92 86 80 86 67 51 349 276 255 249 261
226 179 155 155 182 153 154 148 159 209 212 233 214 208 245 296 317 204 188 184 167 164 175 192 195 199 199 196 198 189 181 172 165 154 129 115 24 335 338 333 310 294 274 271
189 196 184 172 196 169 190 189 167 184 199 263 174 233 244 32 231 212 214 175 167 171 186 191 196 209 206 205 207 209 223 242 246 252 274 302 311 310 308 307 307 310 313 313
193 228 165 173 176 168 175 219 235 334 135 89 228 258 306 188 269 275 157 157 170 178 184 197 209 213 213 213 215 225 240 247 258 275 290 299 304 303 300 298 299 302 303 302
140 156 340 151 187 236 164 150 192 215 209 222 244 241 230 127 204 224 178 189 182 186 199 209 210 215 220 220 227 231 238 250 265 277 284 288 292 292 292 293 292 294 295 294
181 158 204 115 210 186 195 203 224 173 217 192 256 239 194 150 356 202 203 197 186 194 204 213 217 224 226 227 230 234 240 247 255 262 269 275 281 284 287 291 294 295 295 294
198 121 179 212 180 227 210 208 202 187 211 248 268 263 306 146 68 15 223 202 198 204 214 220 228 232 234 230 228 232 237 242 246 253 263 271 276 282 287 291 293 296 297 296
180 186 146 173 269 303 225 214 221 221 251 226 233 257 205 252 243 204 221 238 198 202 210 220 232 241 239 232 231 237 241 244 248 255 263 270 277 284 290 294 296 297 296 296
174 160 217 223 223 139 199 209 213 219 221 231 224 256 257 271 290 238 192 223 216 206 207 225 235 239 238 236 236 240 242 244 250 258 266 272 278 283 287 290 294 297 299 301
162 218 212 240 260 225 191 206 216 219 231 221 245 240 257 255 248 265 254 233 233 214 221 229 237 242 238 238 236 238 243 245 251 257 265 272 278 282 285 286 288 292 302 315
177 229 191 238 236 235 244 198 210 223 235 247 252 261 268 275 276 279 279 278 242 227 227 234 241 242 240 238 238 239 241 241 245 251 255 261 267 272 273 273 272 276 289 314
180 207 159 236 235 237 252 235 220 223 227 228 240 249 259 267 268 265 264 265 263 257 242 238 245 242 240 239 237 237 238 238 239 243 248 253 258 262 262 262 265 277 298 317
192 202 208 249 78 236 235 231 219 229 234 232 243 250 253 257 267 271 272 270 266 261 254 247 241 240 240 240 236 234 235 235 237 239 243 246 249 250 251 255 269 291 309 319
203 186 212 234 237 260 305 231 207 206 239 233 238 247 257 266 272 281 274 269 264 264 267 264 242 236 235 236 234 230 228 228 231 233 234 236 237 241 246 255 274 293 308 319
212 177 201 191 230 237 242 237 236 183 238 241 236 242 244 254 262 268 280 276 262 259 257 245 229 227 228 230 227 225 222 220 222 224 224 226 227 234 250 267 289 307 317 322
202 203 219 228 242 251 229 139 118 167 235 248 239 234 247 239 244 267 280 275 253 243 235 223 219 218 221 223 220 219 216 218 218 217 216 218 222 231 242 267 294 305 315 320
186 187 199 219 231 247 212 122 187 219 187 230 248 235 243 254 258 269 272 263 250 230 211 210 211 213 220 217 213 212 212 212 210 208 208 215 222 234 253 277 294 305 312 314
199 201 192 173 215 218 198 207 226 235 243 250 267 268 257 251 260 267 260 254 244 230 218 219 216 213 209 204 205 207 208 202 201 201 208 215 226 241 262 286 301 307 310 313
225 219 211 208 250 238 244 259 245 241 253 261 265 269 273 262 257 258 255 248 240 228 223 221 216 208 200 199 198 203 201 197 199 206 214 223 235 250 276 294 302 306 307 309
205 153 206 259 260 298 280 264 266 266 267 265 264 265 265 259 258 262 253 244 235 226 220 217 217 209 201 196 198 187 190 192 198 207 217 230 247 265 283 291 300 306 306 310
205 213 197 236 240 216 246 260 260 262 265 264 264 265 267 266 263 254 242 237 232 221 214 208 208 207 198 190 188 185 186 195 204 214 224 238 254 272 287 295 301 303 303 306